This is the latest recevied weather packets stored in our database for station/object SV9FBP. If no packets are shown the sender has not sent any weather packets the latest 10 day(s).
| Time | Temp. | Humidity | Pressure | Rain* | Wind** | Luminosity | Snow |
|---|---|---|---|---|---|---|---|
| 1778132525 | 17.22° C | 77% | 1017.2 hPa | 0 mm | - | - | - |
| 1778131622 | 16.67° C | 74% | 1017.1 hPa | 0 mm | - | - | - |
| 1778130721 | 15.56° C | 73% | 1016.9 hPa | 0 mm | - | - | - |
| 1778129819 | 15° C | 72% | 1016.9 hPa | 0 mm | - | - | - |
| 1778128915 | 14.44° C | 72% | 1016.6 hPa | 0 mm | - | - | - |
| 1778128016 | 14.44° C | 71% | 1016.4 hPa | 0 mm | - | - | - |
| 1778127114 | 14.44° C | 71% | 1016.4 hPa | 0 mm | - | - | - |
| 1778126210 | 14.44° C | 71% | 1016.6 hPa | 0 mm | - | - | - |
| 1778125307 | 13.89° C | 70% | 1016.3 hPa | 0 mm | - | - | - |
| 1778124406 | 14.44° C | 70% | 1016.1 hPa | 0 mm | - | - | - |
| 1778123503 | 14.44° C | 70% | 1016.2 hPa | 0 mm | - | - | - |
| 1778122601 | 14.44° C | 70% | 1016 hPa | 0 mm | - | - | - |
| 1778121699 | 14.44° C | 70% | 1015.8 hPa | 0 mm | - | - | - |
| 1778120797 | 15° C | 70% | 1015.8 hPa | 0 mm | - | - | - |
| 1778119895 | 15° C | 70% | 1015.8 hPa | 0 mm | - | - | - |
| 1778118993 | 15° C | 70% | 1015.7 hPa | 0 mm | - | - | - |
| 1778118090 | 15.56° C | 70% | 1015.8 hPa | 0 mm | - | - | - |
| 1778117188 | 15.56° C | 70% | 1016 hPa | 0 mm | - | - | - |
| 1778116286 | 15.56° C | 70% | 1016 hPa | 0 mm | - | - | - |
| 1778115384 | 16.11° C | 70% | 1015.9 hPa | 0 mm | - | - | - |
| 1778114481 | 16.11° C | 70% | 1015.9 hPa | 0 mm | - | - | - |
| 1778113579 | 16.11° C | 70% | 1015.9 hPa | 0 mm | - | - | - |
| 1778112677 | 16.11° C | 71% | 1015.9 hPa | 0 mm | - | - | - |
| 1778111775 | 16.67° C | 71% | 1015.9 hPa | 0 mm | - | - | - |
| 1778110873 | 16.67° C | 71% | 1015.9 hPa | 0 mm | - | - | - |
* Rain latest hour (hover to see other rain measurements)
** Current wind speed in m/s (hover to see current wind gust speed)